Regional Weather Roundup
Issued by NWS Sioux Falls, SD

Home | Current Version | Previous Version | Graphics & Text | Print | Product List | Glossary Off
Versions: 1 2 3 4 5 6 7 8 9 10 11 12 13 14 15 16 17 18 19 20 21 22 23 24 25 26 27 28 29 30 31 32 33 34 35 36 37 38 39 40 41 42 43 44 45 46 47 48 49 50

000
ASUS43 KFSD 270602
RWRFSD

WEATHER ROUNDUP FOR SE SOUTH DAKOTA/SW MINNESOTA/NW IOWA
NATIONAL WEATHER SERVICE SIOUX FALLS SD
100 AM CDT WED JUL 27 2016

NOTE: "FAIR" INDICATES FEW OR NO CLOUDS BELOW 12,000 FEET WITH NO
SIGNIFICANT WEATHER AND OR OBSTRUCTIONS TO VISIBILITY.


SDZ038>040-050-052>070-270700-
SOUTHEAST SOUTH DAKOTA

CITY           SKY/WX    TMP DP  RH WIND       PRES   REMARKS
BROOKINGS      CLOUDY    71  67  87 SE10      29.96F
CHAMBERLAIN    CLOUDY    71  64  77 S7        29.97R
6HR MIN TEMP:  70; 6HR MAX TEMP:  78; 6HR PCP:  0.01;

HURON          CLOUDY    75  66  73 S5        29.91F
6HR MIN TEMP:  74; 6HR MAX TEMP:  80;

MADISON        FAIR      72  68  88 S12       29.97F
MITCHELL       CLOUDY    74  68  81 NW6       29.93F
6HR MIN TEMP:  74; 6HR MAX TEMP:  86; 6HR PCP: TRACE;

SIOUX FALLS    CLOUDY    75  64  68 S13       29.99R
6HR MIN TEMP:  75; 6HR MAX TEMP:  84;

WINNER         MOCLDY    68  59  73 S32G45    29.94F
YANKTON        CLOUDY    73  64  73 S9        29.96S
$$

MNZ071-072-080-081-089-090-097-098-270700-
SOUTHWEST MINNESOTA

CITY           SKY/WX    TMP DP  RH WIND       PRES   REMARKS
FAIRMONT       CLEAR     70  64  83 CALM      29.99F
JACKSON        CLEAR     72  64  78 S7        30.01F
LUVERNE        PTCLDY    66  63  88 CALM      30.01R
MARSHALL       CLOUDY    74  69  85 S8        29.99S
6HR MIN TEMP:  71; 6HR MAX TEMP:  84;

MONTEVIDEO     LGT RAIN  72  66  83 S5        29.99F
REDWOOD FALLS  PTCLDY    73  68  84 S6        29.98F
TRACY          CLOUDY    73  69  86 CALM      30.00S
WINDOM         CLOUDY    72  66  83 S5        30.00F
WORTHINGTON    CLOUDY    72  66  81 S7        30.02S
$$

IAZ001>003-012>014-020>022-031-032-NEZ013-014-SDZ071-270700-
NORTHWEST IOWA

CITY           SKY/WX    TMP DP  RH WIND       PRES   REMARKS
CHEROKEE       PTCLDY    68  67  95 S3        30.01S
DENISON        MOCLDY    68  66  94 CALM      30.01R
ESTHERVILLE    CLEAR     67  66  97 S3        30.01F
LE MARS        PTCLDY    70  68  94 SW6       30.01R
SHELDON        CLOUDY    70  68  94 S8        29.99S
SIOUX CITY     CLOUDY    74  67  78 S6        29.99S
6HR MIN TEMP:  71; 6HR MAX TEMP:  86;

SPENCER        CLOUDY    68  65  90 S7        30.00F
6HR MIN TEMP:  67; 6HR MAX TEMP:  83;

STORM LAKE     CLEAR     66  64  94 S8        30.03F
$$

ABBREVIATIONS USED IN REMARKS
   TC - TEMPERATURE IN CELSIUS
  WCI - WIND CHILL INDEX
   HX - HEAT INDEX
  VSB - VISIBILITY





USA.gov is the U.S. government's official web portal to all federal, state and local government web resources and services.